Regional Weather Roundup
Issued by NWS

Home | Current Version | Previous Version | Graphics & Text | Print | Product List | Glossary On
Versions: 1 2 3 4 5 6 7 8 9 10 11 12 13 14 15 16 17 18 19 20 21 22 23 24 25 26 27 28 29 30 31 32 33 34 35 36 37 38 39 40 41 42 43 44 45 46 47 48 49 50
539
ASUS43 KDTX 081910
RWRMI
MICHIGAN HOURLY REGIONAL WEATHER ROUNDUP
NATIONAL WEATHER SERVICE DETROIT/PONTIAC MI
200 PM EST THU DEC 08 2016

NOTE: "FAIR" INDICATES FEW OR NO CLOUDS BELOW 12,000 FEET WITH NO
SIGNIFICANT WEATHER AND/OR OBSTRUCTION TO VISIBILITY.

MIZ047>049-052>055-059>063-066>070-074>076-081>083-082000-
SOUTHEAST LOWER MICHIGAN

CITY           SKY/WX    TMP DP  RH WIND       PRES   REMARKS
ADRIAN         LGT SNOW  24  19  81 W17       30.15R WCI  11
ALMA           CLOUDY    28  18  68 W20G26    30.07S WCI  14
ANN ARBOR      CLOUDY    26  20  77 SW20      30.09S WCI  12
BAD AXE        CLOUDY    28  17  63 W22G30    29.98S WCI  14
CARO           CLOUDY    28  18  65 W21G28    30.02R WCI  15
DETROIT CITY   LGT SNOW  27  22  81 W17G24    30.08R WCI  14
DETROIT        LGT SNOW  28  21  75 SW18G25   30.10S WCI  15
FLINT          FLURRIES  27  17  66 W22G30    30.06R WCI  13
GROSSE ILE     FLURRIES  27  20  75 W20G25    30.09S WCI  14
HILLSDALE      LGT SNOW  21  18  86 W14G21    30.12R WCI   8
HOWELL         PTSUNNY   26  19  73 W16G22    30.07R WCI  14

CITY           SKY/WX    TMP DP  RH WIND       PRES   REMARKS
JACKSON        LGT SNOW  24  19  81 W18G24    30.11R WCI  10
LAMBERTVILLE   FLURRIES  28  19  69 W15G29    30.15S WCI  16
LANSING        LGT SNOW  26  19  74 W17G23    30.11R WCI  13
LAPEER         NOT AVBL
MASON          LGT SNOW  25  22  87 W15       30.10R VSB 1   WCI  13
MONROE         CLOUDY    28  20  73 W20G26    30.12R WCI  14
MT. CLEMENS    MOSUNNY   30  23  74 W13       30.03S WCI  20
PONTIAC        PTSUNNY   27  18  69 W23G31    30.04R WCI  12
PORT HOPE        N/A     29  18  63 W17G29    29.94S WCI  17
PORT HURON     CLOUDY    28  18  64 W13G24    30.03R WCI  18
TRI CITIES     PTSUNNY   29  19  66 W23G29    30.04S WCI  15
MIDLAND        CLOUDY    29  17  60 W14G21    30.03R WCI  19
TROY           PTSUNNY   29  21  71 W14G21    30.08R WCI  19
SAGINAW HB     CLOUDY    30  18  59 W20G33    30.04R WCI  18
$$
MIZ043>046-050>051-056>058-064>065-071>073-077>080-082000-
SOUTHWEST LOWER MICHIGAN

CITY           SKY/WX    TMP DP  RH WIND       PRES   REMARKS
BATTLE CREEK   LGT SNOW  24  19  81 W12       30.14R WCI  13
BENTON HARBOR  LGT SNOW  25  17  72 W21G29    30.22R WCI  11
BIG RAPIDS     LGT SNOW  27  21  80 W15       30.04S WCI  15
COLDWATER      LGT SNOW  23  19  87 W15       30.16R WCI  10
FREMONT        LGT SNOW  26  22  86 W7        30.10R WCI  18
HOLLAND        FLURRIES  27  20  75 W15G25    30.16R WCI  15
GRAND RAPIDS   LGT SNOW  25  20  81 W10       30.13R WCI  15
IONIA          FLURRIES  26  18  73 W14G20    30.10R WCI  14
KALAMAZOO      LGT SNOW  24  17  74 W13       30.16R WCI  12
LUDINGTON      CLOUDY    30  24  79 NW10G17   30.07S WCI  21
MARSHALL       LGT SNOW  24  19  82 W15G21    30.13R WCI  12
MOUNT PLEASANT CLOUDY    29  19  67 W16G23    30.03S WCI  17
MUSKEGON       LGT SNOW  28  21  75 W16G25    30.14R WCI  16
SOUTH HAVEN    LGT SNOW  26  20  76 NW10G20   30.19R WCI  16
$$
MIZ016>042-082000-
NORTHERN LOWER MICHIGAN

CITY           SKY/WX    TMP DP  RH WIND       PRES   REMARKS
ALPENA         PTSUNNY   31  21  66 NW12G22   29.90R WCI  22
BEAVER ISLAND  PTSUNNY   30  20  64 NW14G20   29.99R WCI  20
BELLAIRE       SNOW      31  28  88 NW8       29.98R VSB 1/2 WCI  23
CADILLAC       LGT SNOW  27  22  84 W8        29.97S WCI  18
CHARLEVOIX     PTSUNNY   32  22  67 NW18G28   30.00R WCI  20
FRANKFORT      CLOUDY    33  25  75 NW14G24   30.03R WCI  23
GAYLORD        LGT SNOW  29  21  72 NW7G16    29.91R WCI  22
GRAYLING       HVY SNOW  28  27  93 W8G17     29.94R VSB 1/4 WCI  20
HARBOR SPRINGS CLOUDY    31  20  61 NW14G22   29.95R WCI  21
HOUGHTON LAKE  FLURRIES  28  21  75 W18G25    29.95S WCI  15
MANISTEE       CLOUDY    31  24  75 NW17      30.05R WCI  19
OSCODA         CLOUDY    32  19  58 MISG      29.93R
PELLSTON       CLOUDY    30  19  63 NW15      29.95R WCI  19
ROGERS CITY    PTSUNNY   32  22  66 NW12G23   29.91R WCI  23
TRAVERSE CITY  LGT SNOW  32  27  81 W10       29.99R VSB 1   WCI  24
$$
MIZ007>008-015-082000-
EASTERN UPPER MICHIGAN

CITY           SKY/WX    TMP DP  RH WIND       PRES   REMARKS
KINROSS        FLURRIES  29  19  66 N15G24    29.92R WCI  18
MACKINAC ISLAN PTSUNNY   30  23  77 N14G21    29.93R WCI  19
NEWBERRY       PTSUNNY   28  16  59 NW15G22   29.96R WCI  17
S. S. MARIE    MIX PCPN  28  15  58 NW13G21   29.92R WCI  17
MUNISING         N/A     32  23  69 N25G36    30.02R WCI  19
$$
MIZ004>006-011>014-085-082000-
CENTRAL UPPER MICHIGAN

CITY           SKY/WX    TMP DP  RH WIND       PRES   REMARKS
MANISTIQUE     LGT SNOW  28  27  96 N10G16    30.01R WCI  18
ESCANABA       LGT SNOW  29  25  85 NW9G18    30.06R FOG     WCI  20
MENOMINEE      CLOUDY    33  18  53 NW10G18   30.09  WCI  25
SAWYER-GWINN   LGT SNOW  27  21  80 N15G24    30.03R WCI  15
$$
MIZ001>003-009>011-084-082000-
WESTERN UPPER MICHIGAN

CITY           SKY/WX    TMP DP  RH WIND       PRES   REMARKS
IRON MOUNTAIN  FLURRIES  29  18  63 NW15G22   30.06R WCI  18
HOUGHTON       PTSUNNY   28  17  63 NW16G25   30.09R WCI  16
COPPER HARBOR    N/A     31  23  72 N28       30.07R WCI  17
IRONWOOD       FLURRIES  27  20  75 NW16G23   30.17R WCI  15
$$

ABBREVIATIONS USED IN REMARKS
   TC - TEMPERATURE IN CELSIUS
  WCI - WIND CHILL INDEX
   HX - HEAT INDEX
  VSB - VISIBILITY





USA.gov is the U.S. government's official web portal to all federal, state and local government web resources and services.